Lapse_Rate
5.6 5.0 5.1 4.5 4.3 5.0 4.9 4.1 4.0 4.2 5.1 5.0 4.5 4.5 4.2 5.2 4.7 2.3 1.2 1.0 -0.2 1.9 5.1 3.3 2.6 3.6 3.2 2.6 6.5 4.1 4.3 4.0 4.7 6.5 6.5 6.5 6.5 6.5 6.5 6.5 6.5 6.5 6.5 6.5 6.5 6.5 6.5 6.0 6.2 6.5 6.0 5.8 5.5 5.3
5.1 5.1 4.7 4.4 4.5 5.0 4.6 3.7 4.1 4.7 5.6 5.0 4.9 4.6 4.6 5.8 5.2 3.1 1.9 1.7 0.4 -0.5 4.6 4.5 3.9 2.3 2.6 3.5 1.7 1.9 4.2 3.9 2.1 6.5 6.5 6.5 6.5 6.5 6.5 6.5 6.5 6.5 6.5 6.5 6.5 6.5 6.1 4.5 4.8 4.6 5.0 5.0 5.9 4.7
5.0 4.9 4.5 4.5 4.8 5.0 4.8 3.7 4.5 5.3 5.9 5.1 4.9 4.2 6.0 6.3 4.6 3.4 1.3 1.4 -0.0 2.1 4.2 2.3 3.5 3.4 3.4 2.8 2.4 1.5 2.7 4.1 3.6 3.0 2.2 6.1 6.5 6.5 6.5 6.5 6.5 6.5 5.8 6.5 6.5 6.5 6.5 5.7 5.6 5.5 5.4 5.0 5.7 5.6
5.2 4.7 4.3 4.6 5.0 5.0 3.7 4.3 5.0 5.9 6.1 5.6 5.0 4.9 6.4 5.7 5.9 4.1 1.5 1.2 0.6 1.1 4.1 5.0 5.7 4.9 4.5 4.4 3.8 3.3 2.9 3.2 3.1 2.7 2.0 6.4 6.5 5.5 6.5 6.3 6.5 5.8 5.7 6.5 6.5 6.6 6.3 6.3 5.8 5.5 5.9 5.9 6.3 7.0
5.0 4.6 4.4 4.7 5.0 3.8 4.5 5.0 5.8 6.6 6.9 5.9 5.4 5.7 5.8 6.6 5.1 3.9 1.6 0.9 1.7 1.1 4.9 4.1 4.8 5.5 5.0 4.5 3.9 3.7 3.6 2.9 2.0 2.1 3.5 6.5 4.4 4.5 5.0 5.5 6.5 5.4 6.4 6.5 6.5 5.4 5.3 5.9 6.2 6.4 6.4 7.1 7.2 7.4
4.8 4.7 4.3 4.9 4.1 4.1 4.5 5.7 6.5 6.4 6.2 6.0 5.9 5.8 6.8 6.8 6.9 2.5 0.5 3.5 2.5 0.9 2.0 6.4 4.9 5.7 5.1 4.4 3.6 3.7 3.4 2.6 2.0 2.4 2.3 4.1 5.0 4.1 6.5 6.5 6.4 6.3 5.2 5.1 5.8 5.7 5.8 5.9 6.5 7.0 6.9 6.8 6.2 5.9
4.7 4.6 4.7 4.0 4.1 4.2 5.2 6.3 7.2 6.2 6.1 6.0 6.0 6.0 6.9 7.1 2.9 1.7 2.6 3.6 3.6 1.5 2.4 5.5 5.5 5.5 5.4 4.2 3.4 3.2 3.2 2.3 2.4 1.4 2.5 4.3 4.3 2.9 6.6 6.5 6.6 6.3 6.0 6.0 5.9 5.1 5.3 5.9 6.3 6.3 6.1 6.2 6.4 6.3
4.8 4.8 4.3 4.6 4.4 5.5 6.5 7.2 6.6 6.4 6.1 6.0 6.1 6.5 6.3 5.6 3.8 3.2 3.6 4.5 4.8 2.3 4.1 6.4 6.4 5.6 6.0 4.2 4.6 3.6 2.9 2.4 3.0 3.0 3.2 4.4 4.0 3.3 6.5 6.2 6.6 6.7 6.6 6.5 6.0 5.9 6.0 6.7 5.7 6.0 6.3 6.1 5.8 5.9
4.9 4.9 4.4 4.4 5.5 6.7 7.1 6.4 6.3 6.2 6.5 6.9 7.0 7.6 6.1 3.2 3.5 5.3 6.7 6.2 3.8 3.2 4.3 5.1 6.5 6.5 5.4 4.6 4.5 4.0 2.9 5.8 2.5 2.7 2.8 4.3 6.5 6.5 6.5 6.0 6.6 5.9 5.8 6.1 6.1 6.1 6.2 6.1 6.5 6.7 6.9 6.8 6.7 6.3
5.1 4.6 4.6 5.7 6.2 6.9 6.8 6.3 6.7 7.2 7.6 8.3 7.8 4.2 3.9 4.0 5.8 7.0 5.5 3.6 2.2 3.0 2.7 4.6 4.8 6.5 5.2 4.9 4.9 4.5 3.2 6.4 6.5 6.2 3.6 6.0 6.5 6.5 6.3 5.8 5.7 5.9 6.1 6.1 5.6 5.9 5.5 5.3 5.5 6.0 6.3 6.2 5.9 6.3
4.8 5.6 6.2 6.6 6.7 7.1 6.4 7.1 7.6 8.2 8.5 5.3 3.8 4.8 4.7 6.1 5.7 4.5 3.5 4.2 4.2 5.2 3.6 4.5 5.1 6.3 5.3 6.0 6.1 3.6 5.8 5.5 6.5 6.4 6.5 6.5 6.5 6.6 6.3 6.0 5.9 5.8 5.5 5.7 5.8 5.8 5.9 6.3 6.2 6.1 6.5 6.8 6.7 7.1
6.0 7.2 7.2 6.9 6.8 6.7 7.5 7.9 8.9 8.0 4.6 3.6 5.4 5.9 5.6 5.4 4.2 5.7 6.5 5.5 6.2 6.5 5.1 5.2 5.3 4.4 4.3 3.8 4.2 4.5 6.5 6.1 6.5 4.5 6.5 6.5 6.5 6.6 6.5 5.6 5.5 5.4 5.5 5.4 5.5 5.5 5.7 6.4 6.3 6.2 6.2 6.4 6.7 6.5
7.1 7.1 6.6 6.8 6.9 7.6 8.1 8.1 7.2 6.1 7.0 6.6 6.0 5.9 5.4 4.8 6.4 6.5 6.5 6.5 6.5 5.1 5.0 5.1 5.0 3.7 3.5 3.5 3.3 4.8 6.5 6.5 4.6 6.5 6.5 6.5 6.7 6.7 6.6 5.9 5.7 5.4 4.8 4.7 5.4 6.0 6.2 6.4 6.3 6.5 6.3 6.2 5.9 6.1
7.2 7.2 7.5 8.0 7.7 7.6 7.4 7.3 7.5 7.4 3.9 3.8 5.0 6.5 6.4 6.5 6.5 6.5 6.5 6.4 4.8 5.0 5.6 3.3 2.9 3.5 2.3 4.6 4.3 6.5 6.4 5.8 6.5 6.5 6.5 6.5 6.0 5.6 5.2 5.2 4.7 4.6 4.9 5.5 5.9 6.1 6.6 6.5 6.3 6.3 5.0 4.8 4.5 5.7
7.9 7.8 7.7 7.2 7.0 7.4 7.4 7.5 6.8 4.5 3.1 4.5 4.5 6.5 6.5 5.5 4.9 4.6 3.9 4.5 5.8 4.0 3.5 2.9 3.3 3.3 4.2 6.6 5.6 6.5 6.5 6.5 6.5 6.5 6.5 5.9 5.1 5.1 5.0 5.1 4.8 4.5 2.9 5.3 6.1 4.9 3.0 3.6 4.3 3.8 4.2 4.8 5.3 4.3
7.7 7.6 6.9 7.1 7.5 7.1 6.9 6.1 3.9 3.3 3.3 4.7 5.4 6.0 5.7 6.1 6.2 5.9 6.0 6.1 3.6 2.6 1.9 2.5 5.5 6.5 6.5 6.5 6.5 6.5 6.5 6.5 6.5 6.3 5.2 4.4 4.6 4.5 5.3 5.4 5.6 6.1 5.9 5.8 5.6 5.2 4.9 2.0 2.5 3.6 2.7 3.1 3.3 3.8
8.0 6.5 6.9 7.1 7.2 7.3 6.9 3.5 3.0 4.5 4.9 5.7 5.4 4.4 5.5 5.1 4.7 4.5 4.1 3.6 2.7 2.3 5.0 3.7 6.5 6.5 5.2 6.5 6.5 6.5 6.5 6.5 5.4 4.2 3.0 4.5 4.5 4.8 5.3 6.1 6.5 6.6 6.1 5.7 5.8 4.8 3.9 4.5 2.2 3.0 3.6 5.5 4.7 5.9
6.4 7.2 7.3 7.3 7.0 4.1 3.3 3.2 3.7 5.0 6.6 5.8 6.3 5.7 4.3 3.5 3.1 2.8 2.9 2.9 3.1 2.9 3.2 6.0 2.6 6.5 6.5 6.5 6.5 4.7 4.1 2.9 3.5 4.3 3.5 4.4 4.9 5.2 6.1 6.4 6.5 6.1 5.8 4.7 4.2 3.5 3.2 4.0 5.7 6.0 6.0 6.4 5.7 5.8
7.4 6.9 6.4 6.2 4.6 1.5 4.1 4.6 4.3 6.1 6.2 6.3 5.8 4.6 4.2 4.1 3.4 2.9 2.6 2.3 2.0 2.1 1.7 2.4 6.3 6.5 6.5 4.8 6.2 4.4 4.1 4.8 4.4 3.3 3.1 4.7 4.9 5.7 6.2 5.7 5.8 5.7 5.7 5.4 6.0 5.0 5.3 5.8 5.8 5.9 6.1 6.4 6.3 6.5
6.6 5.6 4.9 4.4 2.9 2.1 4.9 4.7 4.8 5.8 6.6 6.3 5.0 4.7 4.4 4.0 3.7 2.0 2.6 2.6 2.7 2.7 4.0 5.6 5.6 3.9 4.0 4.1 3.3 3.6 2.9 3.0 3.2 2.9 2.8 2.4 2.7 5.5 5.6 4.9 4.0 4.9 4.6 5.5 5.0 3.9 4.8 4.9 5.1 5.6 5.9 6.1 5.9 5.9
5.4 3.9 3.2 1.8 1.3 3.8 4.3 4.5 5.1 5.5 5.9 6.0 5.4 4.6 4.2 4.0 3.3 2.5 2.8 2.9 2.7 3.3 4.5 3.8 1.4 2.6 3.0 2.4 2.6 2.9 3.5 3.9 4.2 3.6 3.3 2.1 2.1 4.6 4.0 4.1 5.1 5.2 4.8 3.8 4.2 4.6 3.7 4.7 5.1 5.3 5.4 5.6 5.5 5.8
3.4 3.9 0.8 1.7 4.2 4.7 4.2 4.0 5.1 5.0 5.4 5.7 5.4 5.3 4.2 2.2 2.3 3.4 4.1 3.0 2.8 2.9 3.1 2.5 2.2 3.5 4.1 4.0 3.0 3.6 3.9 4.2 4.3 4.4 4.3 4.0 3.5 3.5 3.7 3.8 4.6 3.9 4.2 4.3 5.1 4.8 5.0 5.4 5.1 5.2 4.4 5.1 5.1 5.5
3.1 1.4 2.4 4.4 3.7 3.9 5.7 4.6 5.8 5.9 5.3 5.3 5.2 5.2 3.9 3.7 5.0 4.2 1.1 3.2 2.4 1.1 2.5 3.4 3.9 3.8 3.7 3.9 4.7 4.9 4.7 5.2 2.8 2.7 3.6 3.0 2.9 3.1 3.8 3.6 4.1 3.8 4.3 4.8 5.2 5.2 4.9 3.9 4.6 2.6 4.6 4.9 5.3 5.4
2.2 2.6 4.1 4.2 4.7 3.0 4.8 3.1 4.6 5.3 5.5 5.2 5.9 6.5 5.4 3.7 4.2 2.3 6.4 1.5 1.6 4.1 3.8 3.9 3.5 2.9 2.7 4.2 2.2 2.1 3.1 2.8 2.6 2.2 2.2 3.0 3.4 3.4 3.4 3.8 4.9 4.6 4.5 4.6 4.8 3.9 4.0 3.3 2.1 3.9 4.3 4.4 5.0 6.3
3.4 5.3 4.2 2.4 3.3 2.3 4.8 4.3 4.7 5.6 6.5 5.0 6.5 6.5 1.8 2.4 5.5 6.5 6.3 0.9 1.5 1.4 1.4 2.7 3.0 3.3 2.3 1.3 1.2 1.8 2.1 2.1 2.3 2.7 1.7 2.2 2.5 1.9 2.3 2.6 3.0 3.2 3.6 2.7 2.4 2.2 1.9 2.5 3.0 3.7 4.5 5.2 5.5 5.4
6.5 2.0 2.9 2.5 1.8 5.5 5.8 6.5 6.5 6.5 6.9 6.5 5.4 3.3 2.7 1.7 6.5 6.5 1.1 -0.2 -0.1 0.4 -1.0 1.2 1.5 1.4 2.0 1.6 1.8 2.1 2.5 1.2 1.8 1.6 1.1 1.8 1.7 1.2 0.4 0.3 0.7 2.0 2.8 1.1 0.0 1.4 2.5 2.9 3.4 3.9 4.5 5.6 5.3 3.7
6.5 5.1 5.6 5.8 5.9 5.6 3.5 3.8 4.8 3.7 6.5 6.5 4.2 4.3 5.6 6.5 6.5 2.1 1.6 1.0 2.1 0.8 1.4 1.8 2.3 2.1 1.7 2.0 1.9 1.8 1.8 1.9 2.7 2.5 1.7 1.1 0.8 0.7 0.7 -0.3 0.5 1.1 2.1 1.2 -0.8 -1.1 1.8 3.3 4.5 5.4 5.7 6.7 5.2 4.1
4.1 4.4 6.1 2.4 3.5 5.0 4.3 3.1 5.3 6.5 3.4 4.0 2.2 6.5 6.5 6.5 6.9 1.2 1.7 1.0 1.1 2.0 2.1 1.6 1.9 2.5 2.3 1.8 1.0 0.6 1.2 -0.1 0.3 0.6 1.7 1.8 1.0 -0.1 0.5 1.6 2.5 2.1 1.9 1.5 -2.0 -1.6 2.1 4.3 6.2 6.1 6.2 5.1 3.2 3.6
2.8 3.4 3.4 2.6 2.9 3.0 1.5 1.2 1.3 2.4 3.5 1.7 0.7 3.8 1.5 2.2 -0.3 1.0 2.0 1.5 1.1 2.2 1.5 1.3 0.7 -0.7 0.4 0.1 -0.6 0.0 -1.3 -0.6 1.0 0.7 -0.0 -2.2 -3.6 -0.7 -2.7 -1.9 -1.6 -0.4 -0.6 -2.0 0.9 2.7 3.7 5.3 6.8 6.3 4.6 3.1 2.2 2.3
4.0 4.3 3.4 2.6 4.9 6.3 6.4 1.4 1.5 -2.0 1.4 1.4 2.6 3.5 3.5 1.8 1.3 -0.2 1.4 1.8 1.2 -0.2 1.1 0.2 3.7 2.1 -0.3 -0.4 -0.2 -0.4 1.4 -2.1 -2.9 -0.4 -1.0 -1.8 -1.0 -3.7 -5.6 -4.6 -5.0 -3.5 -1.7 -2.9 -1.4 0.3 1.9 2.9 1.9 0.8 1.6 0.8 0.2 -1.6
4.7 3.9 3.8 4.4 4.9 3.2 1.8 -1.4 -1.6 -0.9 -1.2 -0.5 -3.3 -0.8 0.6 -0.3 0.5 -0.2 -0.1 0.0 2.8 4.1 4.0 2.4 3.3 3.8 3.0 -2.9 -3.0 -2.9 0.6 -1.8 -1.0 -2.2 -3.3 -4.8 -5.9 -5.6 -5.7 -3.4 -1.3 -1.0 -1.7 -5.0 -3.3 -1.9 1.3 -0.6 -0.1 -1.7 -1.6 -1.2 -3.0 -5.6
2.4 1.9 3.1 5.7 4.8 4.5 0.1 0.0 -1.0 -0.5 -1.6 -0.6 -0.3 -3.3 -1.4 -0.8 0.6 -0.9 3.2 3.4 2.6 3.1 1.5 -3.7 -3.0 2.8 -2.2 -3.8 -4.1 -3.5 -2.1 -3.2 -4.6 -4.6 -2.9 -6.1 -6.1 -1.3 -0.3 -0.0 -0.1 -0.8 -4.2 -5.5 -4.2 -2.2 -0.9 -1.8 -3.1 -4.3 -5.3 -5.9 -6.9 -7.5
2.1 2.7 1.5 1.9 2.0 1.1 0.5 0.7 0.4 -0.2 -2.2 -2.3 -0.4 -2.4 -3.3 -1.5 0.3 -1.0 -0.4 1.8 0.6 -1.6 -1.4 -2.6 -3.8 -4.1 -3.1 -2.6 -3.2 -4.0 -0.6 1.1 2.1 2.0 1.6 1.2 1.0 0.6 0.3 0.1 -0.3 -1.7 -5.8 -6.1 -4.3 -2.5 -2.5 -2.8 -5.0 -5.7 -6.7 -7.2 -7.7 -8.3
Wind_Speed
14 19 36 38 37 40 44 45 45 44 42 38 37 35 31 29 18 3 1 3 4 3 3 3 2 4 4 3 5 5 4 4 3 4 3 3 3 6 4 5 6 6 5 3 2 1 6 3 2 4 6 5 5 5
13 32 37 38 38 42 45 46 45 42 39 38 35 34 30 27 19 7 3 3 6 5 4 2 1 3 2 6 7 3 5 4 4 4 1 3 2 2 6 3 3 2 6 5 7 5 1 5 7 6 6 6 4 6
22 35 38 39 38 42 44 45 44 41 37 36 34 33 31 25 15 7 3 2 4 3 4 5 5 8 9 4 3 5 2 5 3 3 4 2 2 3 3 4 3 2 4 3 3 5 9 9 7 6 6 7 5 5
35 38 40 39 40 43 44 44 43 39 35 34 33 32 30 20 17 8 4 1 4 4 4 3 4 4 9 5 8 4 7 6 5 3 3 2 2 1 3 3 3 4 6 5 5 6 10 6 5 6 6 5 5 2
38 40 41 39 42 44 44 44 42 39 37 35 33 30 26 32 25 22 10 6 5 5 4 1 3 8 9 8 12 9 9 6 3 3 2 1 1 3 2 3 2 2 3 4 3 3 5 4 4 4 5 2 2 1
38 39 40 39 43 45 45 44 42 38 37 37 31 29 35 24 18 5 4 5 9 3 4 3 2 6 9 13 14 11 5 4 3 3 1 1 1 3 3 2 1 4 7 2 5 7 11 7 5 3 3 5 7 8
40 41 39 41 45 46 46 44 40 39 37 34 31 30 27 22 11 4 4 3 2 4 3 3 2 4 4 5 4 4 5 3 3 1 2 2 3 3 2 3 5 6 9 9 8 7 7 5 3 5 7 7 7 5
41 41 41 44 46 46 46 44 42 40 37 37 37 38 37 33 13 4 5 7 7 5 4 4 2 2 3 2 2 3 3 3 4 1 2 2 2 2 2 5 10 8 9 8 7 7 6 5 7 6 4 4 5 5
41 40 43 46 48 47 45 44 43 42 42 41 37 31 9 5 3 1 6 13 9 4 3 3 5 3 2 2 2 3 2 3 2 2 1 2 1 0 4 7 9 4 5 7 7 7 7 6 4 4 4 5 2 4
43 42 45 48 48 46 44 44 45 44 42 39 17 5 3 1 9 5 7 4 4 3 3 2 3 3 4 2 2 3 2 2 2 3 1 2 2 4 9 8 8 7 8 7 7 6 7 7 7 7 7 6 6 4
42 44 46 47 48 48 47 47 45 43 35 5 3 3 1 2 4 3 2 2 1 2 1 3 3 5 1 3 3 2 3 2 2 3 3 1 2 2 6 9 7 10 12 10 8 6 6 4 4 5 5 5 6 6
44 46 47 48 48 49 47 45 41 14 3 7 10 5 3 2 2 4 2 2 3 5 3 4 5 4 2 3 3 2 3 2 3 4 3 3 3 7 9 11 9 9 9 9 8 7 7 7 6 6 6 6 6 7
44 46 48 48 48 47 44 31 32 45 35 7 5 4 3 1 4 6 7 2 3 4 4 6 5 4 3 3 3 3 3 3 3 3 3 2 7 8 9 7 7 7 8 7 7 7 7 6 6 5 6 6 8 9
46 47 47 48 45 37 41 48 37 18 5 4 4 4 3 3 4 4 4 5 3 7 10 4 3 3 2 3 3 4 2 3 2 2 3 3 8 7 6 5 7 6 7 7 5 4 5 6 6 7 6 7 6 9
47 47 46 37 36 45 38 23 14 5 3 3 4 3 2 0 2 2 3 5 7 6 5 3 3 3 2 3 1 4 3 2 3 4 3 6 6 6 7 6 6 5 3 2 2 2 4 6 6 6 8 8 8 8
48 42 20 36 38 27 26 18 6 2 3 3 5 5 2 6 6 5 9 10 2 3 3 4 4 3 2 3 3 3 6 4 3 3 6 5 6 6 6 5 4 2 2 3 4 4 6 5 6 7 7 8 8 8
34 6 37 32 30 22 18 5 3 5 4 4 3 3 6 5 4 3 3 2 1 3 2 3 4 2 3 3 2 1 4 5 7 6 4 8 7 6 6 4 1 3 4 5 5 5 4 6 4 4 7 9 9 10
18 23 33 30 20 9 3 4 4 4 6 5 4 3 4 3 3 3 3 3 4 2 2 2 3 3 3 4 3 2 4 3 4 7 4 5 6 6 4 2 2 3 5 5 5 5 4 6 6 5 7 9 8 8
20 23 26 19 10 5 4 4 4 4 5 2 2 3 4 3 3 3 4 4 4 3 3 3 4 2 2 1 9 6 6 6 6 3 3 5 6 4 2 1 3 4 5 4 5 3 4 6 5 5 6 6 7 9
33 31 28 21 8 4 5 3 3 4 3 1 3 4 3 2 0 2 5 4 3 2 5 3 1 2 3 4 4 6 4 4 4 3 2 1 1 2 2 2 3 4 4 5 4 4 4 4 4 4 4 6 8 10
17 8 21 10 4 5 4 3 4 3 3 3 1 3 3 3 3 3 3 2 4 2 2 1 2 4 6 5 5 5 5 5 4 4 3 1 2 1 2 3 4 3 2 2 3 4 4 4 4 3 5 8 8 9
3 12 4 6 5 5 4 4 4 3 3 3 3 3 3 2 2 2 1 4 2 2 3 3 3 6 6 5 4 5 6 6 5 3 3 3 1 2 2 3 2 2 3 3 3 4 4 4 3 4 5 9 10 10
8 6 4 5 6 5 2 2 4 3 4 2 2 3 2 2 0 2 2 1 1 1 3 4 4 4 6 4 5 4 4 5 2 2 3 2 2 2 2 3 1 2 3 4 3 3 3 5 6 4 7 8 8 10
9 5 5 4 4 2 2 3 2 3 3 3 3 3 1 2 1 3 1 1 2 1 2 4 4 3 3 4 2 2 3 3 2 1 1 3 1 2 1 2 2 1 1 2 3 4 5 6 7 8 8 8 9 10
7 5 5 5 3 5 4 4 3 3 3 2 4 3 2 2 2 1 2 2 0 2 2 3 4 4 4 2 2 2 2 3 3 2 2 2 2 1 2 1 1 3 2 4 5 5 6 6 6 8 9 10 12 12
6 3 4 4 1 5 4 4 3 3 4 4 1 2 2 3 3 2 3 3 3 3 3 5 4 2 0 3 3 1 3 2 3 2 2 3 3 3 2 2 1 2 3 1 2 6 8 8 8 11 10 13 9 4
4 1 1 1 3 4 4 3 3 4 4 4 3 2 3 3 3 3 2 2 3 3 3 4 4 4 3 2 0 1 1 2 4 3 2 1 1 2 3 3 0 3 4 2 3 3 7 9 10 11 10 4 2 3
3 2 5 2 4 3 6 4 3 2 3 2 3 3 6 7 4 3 3 2 3 3 3 2 2 4 4 3 3 3 1 2 3 3 4 5 4 5 5 1 2 5 8 11 4 4 5 8 9 9 9 3 2 4
3 1 5 6 6 5 3 3 2 2 2 3 4 2 2 2 2 2 1 2 3 4 3 3 2 2 3 2 1 1 2 3 3 2 0 3 3 3 2 4 5 7 10 6 11 11 9 9 7 6 8 4 3 3
2 2 4 4 5 4 3 2 1 2 2 2 3 3 4 3 2 0 3 3 3 2 2 2 2 1 1 2 1 2 2 1 3 4 3 4 4 2 1 2 2 5 10 4 5 6 11 6 4 4 4 4 3 3
2 3 4 4 4 2 2 2 2 4 4 4 3 4 2 1 3 3 2 1 4 4 3 2 3 3 4 2 3 3 2 2 3 5 4 3 3 2 1 1 4 6 7 3 4 3 4 3 3 3 4 5 5 4
3 4 4 4 2 2 4 3 2 3 3 3 3 3 4 4 1 3 1 1 2 2 4 3 3 4 3 3 2 2 5 3 3 4 6 3 2 4 1 2 3 6 6 3 4 3 2 2 3 3 3 3 3 4
4 5 5 4 3 3 3 4 4 3 4 3 2 2 2 4 3 3 1 0 2 3 4 4 3 3 5 5 4 3 5 6 8 8 6 6 4 2 1 2 1 3 3 3 4 3 3 3 2 3 3 2 3 4
Wind_Direction
217 199 167 160 156 156 153 149 149 154 157 159 161 163 164 165 166 108 88 355 114 98 9 13 9 125 103 111 137 186 75 348 53 67 119 202 131 208 129 171 175 154 142 194 101 104 284 239 98 205 148 90 131 100
228 167 159 155 152 152 151 148 149 148 152 156 157 156 150 158 171 170 90 5 72 88 162 260 130 81 315 149 128 29 147 156 167 92 184 97 98 107 146 207 137 166 180 177 176 213 324 23 105 79 119 124 119 100
183 157 153 150 150 149 145 146 147 145 148 151 152 148 148 158 169 150 118 122 60 93 58 37 351 328 10 36 125 113 290 142 131 158 155 166 127 125 152 225 123 244 155 152 111 85 102 97 89 98 100 110 114 118
160 153 150 146 146 143 141 140 140 143 148 146 145 141 144 150 126 116 98 271 85 101 94 315 329 16 323 37 64 86 123 75 93 65 87 114 133 174 180 148 139 201 149 152 66 107 89 80 103 117 101 114 94 86
155 152 147 146 143 140 140 139 139 142 147 145 140 137 132 113 110 91 82 32 70 115 135 172 321 2 19 62 70 62 90 93 81 59 69 141 166 90 23 70 359 341 178 163 176 134 112 129 123 104 89 88 230 315
146 145 143 142 139 138 137 136 140 143 143 142 135 132 120 125 102 63 47 354 11 75 95 83 278 9 29 59 58 50 52 60 76 117 135 54 25 104 91 99 17 37 58 159 132 98 108 127 108 64 34 32 57 75
141 139 138 136 134 133 133 134 139 138 137 132 125 112 108 94 62 79 159 195 117 80 87 95 56 339 346 38 33 28 31 63 85 105 61 106 18 65 90 143 137 103 84 78 108 105 72 68 90 27 68 63 64 67
137 137 134 132 131 131 133 138 136 133 124 117 109 105 99 97 101 48 355 28 70 89 84 102 49 42 23 43 55 4 46 30 15 117 38 89 16 61 77 127 125 118 104 85 82 88 125 85 67 56 65 55 42 14
135 132 129 130 130 132 135 134 130 126 121 116 110 106 77 51 67 150 48 60 59 90 94 90 137 172 57 91 95 33 65 60 306 66 46 83 333 173 146 128 117 127 110 118 86 81 75 80 63 26 19 4 12 336
129 128 129 130 132 134 134 132 130 127 125 116 105 68 56 340 130 67 18 29 21 347 62 111 142 151 119 122 77 92 29 140 107 246 82 80 86 1 107 113 111 98 100 92 83 49 37 31 27 8 357 13 26 13
126 128 131 134 136 137 135 134 133 125 118 73 73 83 114 103 56 55 125 128 130 129 176 142 139 131 230 113 133 177 172 151 117 216 119 164 122 130 109 98 81 76 79 76 92 93 81 70 20 25 1 344 325 317
127 132 132 131 133 134 136 134 133 124 113 127 108 103 77 78 74 112 201 130 172 181 156 126 145 134 134 112 107 198 130 90 150 142 90 147 125 142 104 91 79 78 76 67 56 45 30 32 21 359 340 333 322 301
131 130 129 131 133 135 137 126 112 121 117 99 73 113 131 191 69 156 183 184 127 166 154 143 125 129 70 62 65 93 85 181 110 60 153 125 144 97 113 107 91 75 65 59 47 38 26 8 355 344 315 299 299 303
128 129 132 133 132 131 122 128 138 123 75 96 136 118 159 186 222 187 168 155 155 134 130 120 84 111 134 80 138 104 174 105 84 119 164 115 125 125 113 94 80 62 65 52 35 8 351 330 308 298 290 287 289 294
131 132 130 123 125 127 127 117 98 60 79 83 73 112 165 189 32 120 131 91 108 115 101 85 62 82 38 97 89 99 82 178 188 180 131 146 139 113 92 87 89 85 59 351 313 303 285 293 288 284 296 295 292 290
127 124 121 120 125 116 104 95 60 73 54 73 49 77 78 75 64 74 108 116 63 100 86 58 97 89 122 134 96 183 150 190 195 137 144 129 109 107 106 104 99 75 359 317 300 283 284 285 289 281 298 301 294 289
117 107 126 117 109 93 82 75 53 54 72 54 26 30 88 83 94 78 80 76 115 70 86 96 84 158 102 84 97 20 186 161 139 138 124 127 125 126 122 117 38 326 324 310 299 297 283 283 292 318 313 305 299 302
113 117 111 109 107 64 39 41 76 68 63 42 75 63 70 55 80 45 40 25 68 81 80 146 127 88 124 129 155 215 102 83 100 120 122 125 127 138 135 133 316 306 298 296 288 272 275 302 307 295 295 300 297 299
113 103 91 90 96 99 80 35 53 76 51 62 37 41 59 57 35 72 68 43 75 100 85 41 65 110 156 144 132 123 123 125 132 149 133 141 141 138 125 305 301 299 295 276 287 277 278 285 279 287 291 300 299 304
89 75 75 72 71 71 65 31 56 77 60 40 33 33 73 71 23 38 49 35 51 64 41 48 203 210 134 117 115 129 131 127 116 96 57 17 126 129 287 278 260 267 269 289 293 288 298 305 294 288 299 310 311 309
74 37 40 43 43 63 88 61 50 101 96 78 19 63 53 23 37 29 34 355 58 62 60 356 76 80 87 92 103 109 110 116 127 138 162 160 267 219 277 288 283 277 261 280 288 292 290 275 277 290 315 316 307 300
82 73 62 34 66 48 64 21 109 117 80 129 65 61 67 48 18 358 4 43 55 211 140 145 122 109 100 97 99 105 129 111 114 106 115 149 298 286 278 262 305 284 297 286 287 278 282 284 285 295 308 309 307 306
68 52 50 47 69 60 339 28 76 66 108 118 74 77 44 58 120 41 52 132 245 268 117 120 117 100 111 122 110 102 121 132 148 199 222 223 237 249 280 312 326 261 302 296 282 291 301 303 306 293 309 309 311 316
48 55 54 64 76 123 39 27 60 88 85 87 83 81 65 140 36 51 90 249 248 109 86 118 113 85 52 74 102 197 213 173 180 355 148 118 44 309 281 271 294 285 323 300 351 343 330 320 314 314 312 305 304 315
73 6 79 24 20 74 67 31 27 68 109 110 82 21 310 60 71 50 182 258 137 109 128 127 124 138 151 208 286 267 294 142 141 162 278 142 156 323 309 270 352 81 6 7 347 328 317 313 313 315 313 312 303 301
76 299 100 163 200 111 163 116 138 131 89 63 124 174 75 89 74 226 236 200 181 162 170 163 161 133 222 180 161 162 207 173 121 126 262 178 185 176 233 284 21 299 10 341 306 314 318 315 312 310 310 310 318 12
83 296 292 181 116 107 80 70 86 87 96 134 186 86 81 92 210 250 280 238 135 198 162 156 149 147 167 157 120 181 187 177 168 178 185 181 79 125 127 131 275 251 311 298 290 274 301 311 311 308 302 311 338 6
164 125 131 246 80 92 102 78 93 137 164 136 84 104 137 167 203 225 193 229 133 118 113 112 142 135 133 162 168 140 86 101 77 60 72 64 54 91 100 125 289 353 359 336 295 285 299 314 313 323 314 316 39 28
46 41 77 55 53 53 65 115 180 234 167 112 118 150 183 212 218 97 16 98 85 90 90 95 350 31 58 58 78 85 131 133 117 88 188 260 318 288 342 37 29 359 339 322 326 324 314 315 327 8 45 55 15 51
15 56 83 55 61 60 15 139 189 278 35 116 108 66 47 23 328 280 76 65 80 129 161 169 171 120 217 135 234 339 12 100 141 148 186 236 232 240 40 30 345 334 343 341 325 314 316 327 344 13 39 30 29 22
95 72 70 64 75 319 272 282 9 48 37 42 22 94 156 238 335 4 62 82 130 142 150 182 192 195 195 191 158 139 212 308 119 131 137 140 141 141 171 303 341 3 358 336 313 308 315 9 37 39 34 35 25 25
57 89 109 88 83 338 24 57 60 68 7 46 348 32 19 42 333 297 282 119 153 197 225 182 163 210 210 177 156 145 149 160 173 166 156 148 168 178 175 348 9 13 9 339 326 309 12 54 65 63 58 37 17 8
58 68 64 83 49 30 325 80 29 30 23 37 341 164 178 156 203 256 294 295 184 203 205 206 200 155 151 143 160 168 165 173 166 172 172 158 158 158 337 339 336 19 22 3 345 17 45 71 77 58 44 32 4 349